Location: ??
(35.5052°N, 139.7262°E)
Time: 01:44:19
(UTC+00:00)

OAO 1 - Pass Details

Date: 27 October 2021
Orbit: 773 x 784 km, 35.0° (Epoch: 01 December)

Event Time Altitude Azimuth Distance (km) Brightness Sun altitude
Rises 08:04:18 0° 258° (WSW) 3,241 11.3 -3.3°
Reaches altitude 10° 08:06:46 10° 257° (WSW) 2,316 9.1 -3.8°
Maximum altitude 08:12:14 79° 171° (S) 792 4.6 -4.9°
Drops below altitude 10° 08:17:45 10° 85° (E) 2,326 6.3 -6.0°
Enters shadow 08:18:25 - 85° (E) 2,578 6.5 -6.1°
